Location: Gadern
(49.5873°N, 8.8138°E)
Time: 21:05:38
(UTC+00:00)

NOSS 3-1 (A) - Pass Details

Date: 19 May 2025
Orbit: 667 x 1541 km, 63.4° (Epoch: 12 June)

Event Time Altitude Azimuth Distance (km) Brightness Sun altitude
Exits shadow 22:37:13 - 240° (WSW) 2,840 5.8 -19.7°
Reaches altitude 10° 22:38:47 10° 244° (WSW) 2,243 5.3 -19.8°
Maximum altitude 22:43:46 54° 322° (NW) 999 3.8 -19.9°
Drops below altitude 10° 22:49:50 10° 39° (NE) 2,713 6.4 -20.1°
Sets 22:52:47 0° 44° (NE) 3,809 7.2 -20.1°
